RH
32 31 59 63 62 54 59 67 92 91 84 95 92 52 42 30 23 20 25 30 32 32 25 22 20 16 10 6 5 4 18 24 22 22 27 26 21 16 15 12 11 12 10 11 10
35 53 80 68 67 56 73 98 88 78 74 86 62 40 30 31 21 19 25 26 30 23 15 14 10 8 6 5 5 5 11 19 21 25 32 28 21 17 14 11 10 10 11 10 10
69 84 98 97 98 82 96 97 90 82 79 93 51 46 39 35 34 30 26 20 40 16 12 10 9 7 6 6 5 12 25 26 27 25 20 19 16 15 13 10 11 11 10 11 10
76 72 93 77 68 93 93 89 69 60 64 59 39 45 50 45 51 36 29 23 38 19 15 12 11 9 8 7 6 14 19 23 24 18 16 15 13 13 11 11 12 14 11 10 10
63 79 61 48 49 52 53 52 52 53 74 46 35 34 51 53 49 40 36 36 33 33 19 16 12 11 15 15 10 17 14 15 15 15 17 20 18 17 16 13 14 10 10 10 10
75 56 42 32 26 27 27 26 26 28 47 37 30 48 58 63 52 39 42 38 47 41 21 20 13 12 19 12 12 13 14 15 15 14 15 17 14 13 12 10 9 10 10 9 9
43 37 25 22 21 22 22 23 25 25 36 24 42 54 68 64 53 53 51 42 44 34 20 20 18 15 16 16 16 16 16 15 14 15 14 14 13 10 9 9 9 10 10 9 9
31 22 19 19 22 25 26 32 40 44 42 22 47 58 66 74 59 58 56 53 53 51 25 18 17 17 16 16 16 15 15 14 15 14 12 11 12 13 13 12 10 10 9 9 9
19 17 16 21 20 26 31 43 52 44 67 53 66 71 64 67 65 58 62 58 55 50 43 32 32 17 20 14 16 14 20 22 20 16 12 11 12 14 12 11 10 9 9 8 8
16 17 17 19 19 30 31 34 48 50 53 82 82 73 67 71 70 64 66 64 56 54 40 46 38 30 20 17 28 32 21 18 18 19 16 12 10 11 10 9 9 9 8 9 8
18 19 18 20 20 42 32 42 41 56 57 75 80 77 72 80 76 71 67 68 71 56 40 44 30 32 39 28 16 16 15 16 19 16 15 12 11 9 10 10 8 9 10 10 10
18 19 19 19 23 34 36 40 37 46 82 71 84 81 78 81 62 73 71 68 67 60 45 44 37 21 18 37 50 22 20 17 20 16 15 11 9 8 9 9 9 9 10 11 13
20 22 21 22 27 31 30 33 30 38 49 55 58 69 72 74 51 47 55 60 66 65 50 35 29 19 18 14 14 22 16 17 17 12 11 11 11 10 10 10 10 10 10 10 10
21 22 23 25 25 26 28 28 27 30 29 42 48 47 38 30 51 30 35 51 60 54 43 31 22 17 15 14 16 17 16 14 13 13 13 14 16 7 8 8 8 7 6 7 9
21 22 22 22 22 22 23 24 22 26 66 24 27 29 32 31 25 25 24 21 23 27 27 20 17 17 17 17 17 16 17 14 12 8 10 10 25 10 14 13 10 8 9 10 11
20 21 20 20 20 19 19 19 18 24 41 24 24 25 26 23 23 22 24 25 21 20 20 20 17 16 17 17 15 15 14 10 8 14 48 28 31 9 22 17 12 7 6 6 10
19 20 20 20 19 18 17 16 22 24 20 22 21 22 20 20 19 19 19 18 18 18 16 16 15 16 15 14 16 14 10 13 57 58 69 37 21 7 11 13 11 7 6 8 12
8 12 16 17 18 17 14 18 13 15 17 20 19 20 19 19 18 16 16 16 16 15 17 16 18 13 15 14 14 11 9 16 57 83 76 30 15 7 9 7 6 7 9 9 12
8 8 7 7 7 8 9 11 13 13 15 18 19 18 17 16 15 16 16 16 15 14 14 22 17 10 11 11 11 14 9 14 11 19 31 12 17 10 11 9 10 10 9 9 11
12 13 13 13 11 9 9 10 13 16 17 16 15 16 17 16 15 13 12 11 11 12 13 11 9 11 8 7 8 8 16 16 12 57 83 52 37 25 20 17 15 13 14 25 29
15 15 13 12 11 11 13 13 12 10 11 11 9 10 13 12 14 12 9 8 6 6 5 6 6 17 11 10 10 14 17 16 21 37 90 87 42 26 21 21 22 23 27 24 30
19 19 18 18 16 15 13 11 12 15 19 19 12 10 9 7 7 7 7 6 10 10 10 10 12 23 30 30 31 32 28 22 23 48 29 67 34 17 18 17 21 22 19 24 23
21 20 20 20 21 20 18 16 16 13 12 13 18 22 25 24 22 29 30 35 28 28 22 30 29 39 47 48 37 32 28 28 29 37 54 60 29 15 14 19 21 23 26 28 28
13 16 18 19 21 22 21 20 21 20 17 16 12 12 12 15 22 24 27 26 25 24 32 34 34 30 31 31 34 33 26 26 34 41 37 29 9 6 7 10 16 20 27 32 32
12 15 13 14 12 18 23 21 24 24 23 20 19 16 12 12 12 14 16 18 24 27 30 33 33 35 28 27 31 31 26 22 36 13 33 6 11 6 7 10 13 20 18 18 17
16 18 18 15 17 19 20 25 25 27 28 24 24 26 22 17 16 22 22 18 20 19 25 31 33 32 22 20 24 36 15 18 30 26 25 14 17 9 13 14 18 16 17 19 22
18 22 24 19 18 24 25 27 30 32 28 28 30 30 28 23 19 17 20 26 29 24 33 36 35 44 51 37 53 59 18 17 21 21 21 31 12 11 13 17 20 16 21 22 28
Wind_Speed
5 3 2 7 10 16 24 20 16 13 18 13 9 18 21 25 30 31 32 30 31 28 25 23 22 22 21 21 21 22 11 7 10 10 16 13 13 14 13 12 12 12 12 12 12
10 8 8 12 14 16 26 14 12 14 16 13 14 20 28 33 34 31 26 28 32 26 21 23 22 21 20 22 21 21 16 12 15 15 12 14 14 14 14 14 13 13 12 12 14
10 13 15 13 10 20 9 6 10 14 12 13 18 23 33 30 27 30 26 23 35 23 20 21 20 21 20 22 21 20 14 19 12 14 19 17 14 12 15 15 14 14 13 13 16
10 12 13 9 10 11 9 8 9 11 13 13 26 20 22 25 18 26 23 23 24 15 19 20 18 18 19 18 20 17 20 15 14 17 17 15 13 15 16 16 11 14 16 16 18
9 10 8 7 8 10 10 9 10 12 15 18 25 19 23 24 19 28 24 21 27 19 18 18 19 18 13 16 16 19 19 18 14 13 14 13 13 14 14 14 15 16 17 19 20
9 9 9 8 9 11 12 13 13 13 19 18 23 22 21 14 25 26 23 20 27 26 9 14 18 19 17 12 15 16 16 13 13 13 13 14 14 16 16 14 17 17 19 20 21
10 9 9 10 13 14 15 14 13 13 23 18 26 23 17 17 27 27 23 25 26 23 12 12 14 16 12 10 11 13 11 13 12 12 13 14 16 15 18 15 18 18 20 21 21
9 10 11 11 14 15 16 20 16 12 17 24 29 22 16 16 22 26 26 23 20 18 23 8 10 11 7 5 4 9 10 8 10 12 14 13 17 14 15 16 17 20 23 23 25
12 13 13 12 12 15 13 18 20 16 14 21 28 20 11 17 19 30 24 20 17 16 18 9 7 7 5 3 2 5 3 6 12 11 12 13 11 15 18 19 21 24 26 27 27
14 14 13 13 15 18 14 16 19 16 18 22 22 19 14 10 20 29 24 19 19 12 18 9 5 6 2 4 4 3 5 7 11 13 13 16 18 19 24 25 24 27 28 30 31
13 13 14 15 16 20 16 15 16 16 18 20 15 12 14 14 10 20 24 19 12 12 17 16 3 2 5 4 7 8 9 12 13 18 19 20 24 23 23 26 30 31 31 32 33
14 13 13 14 12 11 12 11 9 19 23 17 15 10 18 18 8 16 21 17 16 15 11 7 5 6 7 10 13 12 15 14 16 20 20 23 28 27 27 31 34 36 35 32 31
11 10 9 9 12 11 13 13 13 16 18 15 17 15 14 10 8 16 16 20 20 16 11 7 8 11 12 12 12 18 18 18 19 23 23 26 30 17 18 19 21 24 24 29 32
11 12 12 12 14 13 13 16 7 10 9 10 9 10 10 17 15 15 18 16 17 15 15 10 17 14 14 14 14 19 18 18 19 17 8 17 10 26 25 25 19 20 22 22 24
10 10 10 10 9 7 4 2 1 0 3 6 6 9 10 10 13 11 11 14 13 12 17 11 14 17 15 17 16 17 15 15 17 18 21 19 9 7 9 14 14 13 11 12 16
6 6 7 6 7 7 5 4 2 0 4 3 5 7 8 6 10 13 13 11 10 13 16 16 11 13 17 16 16 15 13 16 18 12 4 9 10 6 11 16 15 18 16 14 13
6 5 5 4 3 4 5 5 1 5 3 5 6 9 7 9 6 11 12 13 9 9 12 12 13 13 14 15 14 13 11 4 4 0 5 6 8 15 17 19 19 16 20 17 12
6 6 7 8 8 8 7 4 6 5 5 4 6 6 4 6 5 8 9 10 12 10 4 7 6 11 13 14 10 6 7 3 5 2 4 8 9 8 10 13 14 15 15 15 10
8 8 7 6 5 6 7 9 4 3 5 7 6 3 2 1 1 2 5 7 7 9 6 6 6 6 10 8 8 5 7 6 5 8 3 7 10 16 18 15 13 12 11 11 10
13 12 12 10 9 9 10 10 6 8 7 5 3 2 1 3 3 2 4 4 5 9 10 7 7 9 9 11 12 13 7 3 6 1 4 7 10 16 13 15 15 13 12 16 14
13 16 16 15 15 13 14 11 8 7 5 3 4 3 0 1 4 4 5 5 7 6 8 8 9 7 8 8 11 12 16 12 8 7 4 2 8 13 15 21 19 16 14 16 16
10 13 12 13 13 15 15 12 9 7 6 4 2 2 2 1 4 5 6 6 5 6 8 9 6 8 12 15 14 15 15 14 7 5 9 3 22 24 10 11 14 17 20 21 22
9 9 9 12 11 12 12 11 11 10 8 7 6 5 6 5 3 4 5 5 6 8 5 5 6 3 6 9 13 18 17 19 19 20 20 4 15 16 25 21 22 27 28 29 29
9 8 9 6 10 9 10 9 9 9 7 8 7 7 7 7 8 8 9 8 9 10 12 13 17 18 15 12 15 17 18 18 21 16 24 34 47 38 41 39 35 32 34 34 39
9 8 10 11 12 10 10 10 10 11 10 11 9 10 10 9 12 14 16 16 16 15 16 16 21 19 23 26 25 27 28 31 34 38 32 44 43 41 41 45 39 32 29 34 39
14 14 14 14 12 11 11 12 11 11 11 11 14 18 17 17 14 19 19 20 21 20 19 20 22 24 30 28 28 27 33 37 41 43 49 51 51 26 22 21 22 25 26 29 30
18 18 18 19 17 16 17 15 15 14 13 13 19 22 24 23 21 23 25 24 26 27 23 23 25 20 15 23 18 20 32 24 30 35 37 43 30 25 27 27 29 28 28 29 25
Wind_Direction
34 16 297 250 250 231 220 218 226 223 229 242 201 191 184 175 172 173 182 193 197 200 207 209 212 215 218 222 216 204 211 210 229 237 237 244 234 225 234 241 235 243 264 286 295
46 26 330 267 258 244 226 216 199 214 225 218 190 180 167 160 159 164 157 183 192 190 199 204 204 207 210 215 210 202 222 229 215 210 226 240 236 226 232 241 240 252 261 278 290
51 16 357 15 347 222 191 198 186 201 206 197 180 162 166 162 159 146 137 162 189 187 189 197 206 199 205 208 206 206 208 227 231 229 245 244 245 239 236 241 249 258 268 279 288
32 15 14 23 52 107 161 178 173 174 173 178 167 157 168 171 167 145 144 149 173 173 178 183 184 187 203 201 207 219 225 232 238 244 247 244 246 240 241 251 267 272 284 287 288
13 17 37 66 96 122 137 146 147 154 166 167 177 171 166 167 164 147 150 166 179 178 171 165 170 178 172 203 205 225 229 239 252 248 247 246 247 249 253 262 271 277 282 288 287
32 51 60 68 90 108 120 127 129 138 159 169 163 167 161 144 165 169 156 145 189 184 175 160 181 173 187 196 212 226 239 249 250 251 249 252 257 262 268 275 274 278 283 285 285
64 69 75 90 98 99 98 97 105 130 159 159 160 168 164 149 168 176 166 169 156 173 185 155 169 175 183 193 216 234 246 244 250 251 252 256 262 271 272 275 273 277 279 282 282
65 73 82 90 100 107 109 109 97 100 149 156 168 171 160 162 177 175 182 179 188 158 198 139 148 169 156 176 220 230 246 257 258 257 258 261 266 272 276 279 282 283 283 284 285
71 79 85 93 94 95 104 115 95 94 126 156 162 165 131 156 178 184 173 173 172 189 154 151 124 141 149 175 181 227 233 262 274 275 268 263 261 272 282 285 286 285 284 284 283
76 83 90 87 77 93 101 109 105 109 118 141 158 171 166 142 174 184 196 179 174 167 194 188 129 131 134 210 178 195 251 266 265 272 272 275 277 276 283 280 280 280 282 281 282
85 84 79 81 84 62 78 97 104 114 144 142 147 170 169 180 164 197 205 198 188 174 172 191 213 206 224 241 255 265 273 269 284 274 281 286 284 284 280 283 284 281 278 278 279
90 93 91 95 106 108 112 97 100 98 118 182 175 234 203 216 151 176 212 216 200 181 156 153 191 263 259 255 255 288 276 273 272 277 288 289 286 286 282 273 270 275 279 281 278
77 76 81 93 84 93 95 101 111 114 117 131 151 163 173 144 158 164 197 217 216 190 168 190 234 246 237 247 254 248 264 270 279 287 292 297 300 288 284 273 277 279 273 275 273
71 80 85 83 81 85 102 109 80 81 90 119 146 170 177 155 152 148 150 168 179 190 191 220 249 251 241 245 247 253 257 266 275 291 283 298 285 284 279 282 283 281 278 274 273
74 72 79 82 68 69 78 71 347 336 62 125 132 145 145 142 158 169 179 174 177 196 206 220 236 237 244 247 246 252 264 276 285 289 291 288 252 282 280 276 286 287 290 285 277
66 85 91 82 59 43 30 4 350 238 85 136 130 145 156 137 151 171 178 190 211 208 214 235 248 240 242 245 249 257 274 287 283 274 264 221 234 273 251 272 290 303 301 297 283
38 31 23 46 54 57 27 20 103 56 93 131 142 155 155 161 170 172 182 192 188 195 216 229 239 242 247 250 252 256 277 280 326 296 228 230 244 261 265 272 285 295 297 296 288
42 28 21 6 7 6 9 35 61 85 82 124 137 147 153 161 165 178 191 199 213 220 223 225 268 245 247 245 253 268 222 213 229 252 277 282 250 271 271 279 280 282 279 287 276
55 61 62 71 55 41 34 57 67 60 108 128 133 153 127 154 56 229 241 249 239 234 215 216 238 259 254 251 236 236 222 238 270 284 295 247 272 282 281 283 287 295 292 294 285
44 44 48 48 54 70 78 79 82 86 97 96 76 91 195 191 205 213 238 251 245 243 241 254 269 275 263 256 250 242 247 221 222 345 282 277 274 260 282 291 298 295 293 296 289
70 66 55 49 49 51 61 69 74 84 85 80 80 90 209 258 237 256 270 259 241 242 237 245 246 267 259 249 250 237 231 223 226 225 194 276 259 262 288 298 294 293 293 296 292
52 59 54 58 61 60 55 52 54 43 33 34 46 114 175 240 279 254 255 265 284 258 256 251 258 260 269 276 264 254 241 227 218 221 230 255 273 290 282 293 280 282 295 293 295
20 28 24 28 36 41 42 39 36 29 21 14 2 353 333 314 288 265 267 269 270 275 285 264 243 286 279 270 258 251 252 247 236 249 248 212 264 292 295 291 289 289 285 288 290
339 342 351 352 5 2 6 11 13 12 15 2 347 337 325 312 294 279 281 278 265 258 248 250 248 242 237 263 274 264 268 265 239 236 248 253 281 294 293 292 290 287 284 280 282
307 306 311 314 327 329 331 333 337 342 348 348 345 334 317 297 292 278 276 279 275 275 265 256 264 267 265 263 270 275 276 272 254 269 244 281 278 294 298 297 297 291 281 279 284
300 298 296 295 302 300 302 306 313 316 323 320 332 326 311 300 292 280 279 277 277 271 269 266 268 277 279 282 286 273 274 267 264 268 270 276 281 306 307 299 292 294 293 292 283
290 290 290 292 293 294 295 296 296 292 297 297 311 308 299 296 282 279 275 273 272 277 272 265 265 270 277 289 292 276 285 280 277 274 274 270 296 308 303 303 300 294 292 290 280